Location: Bakhuizen
(52.8696°N, 5.4575°E)
Time: 14:05:21
(UTC+00:00)

ATLAS 2AS CENTAUR R/B - Pass Details

Date: 11 May 2021
Orbit: 949 x 1263 km, 63.7° (Epoch: 07 May)

Event Time Altitude Azimuth Distance (km) Brightness Sun altitude
Rises 23:12:52 0° 312° (NW) 4,088 6.5 -18.8°
Reaches altitude 10° 23:16:10 10° 301° (WNW) 3,072 5.6 -18.9°
Maximum altitude 23:21:53 26° 249° (WSW) 2,047 4.0 -18.9°
Enters shadow 23:24:29 20° 218° (SW) 2,250 4.0 -19.0°
